Syracuse, NY

7:25 AM EST on February 27, 2017 (GMT -0500)
Syracuse Hancock International

Weather History for KSYR - March, 2011

Change the Weather History Date:

Thursday, March 10, 2011

  Actual Average Record
Temperature  
Mean Temperature 38 °F 32 °F  
Max Temperature 42 °F 41 °F 67 °F (1977)
Min Temperature 34 °F 23 °F -1 °F (1972)
Degree Days  
Heating Degree Days 27 33  
Month to date heating degree days 349 347  
Since 1 July heating degree days 5340 5178  
Cooling Degree Days 0 0  
Month to date cooling degree days 0 0  
Year to date cooling degree days 0 0  
Moisture  
Dew Point 36 °F    
Average Humidity 88    
Maximum Humidity 100    
Minimum Humidity 76    
Precipitation  
Precipitation 0.41 in 0.09 in 1.33 in (1964)
Month to date precipitation 1.88 0.87  
Year to date precipitation 5.96 5.44  
Snow  
Snow T in 0.80 in 10.30 in (1964)
Month to date snowfall 13.4 8.0  
Since 1 July snowfall 173.5 109.9  
Snow Depth 7.00 in    
Sea Level Pressure  
Sea Level Pressure 29.96 in    
Wind  
Wind Speed 15 mph (ESE)    
Max Wind Speed 26 mph    
Max Gust Speed 32 mph    
Visibility 10 miles    
Events Rain    
T = Trace of Precipitation, MM = Missing Value Source: NWS Daily Summary

Daily Weather History Graph

Daily Weather History Graph

Search for Another Location

Airport or City:

Trip Planner

Search our weather history database for the weather conditions in past years. The results will help you decide how hot, cold, wet, or windy it might be!

Date:

Astronomy

Mar. 10, 2011 Rise Set
Actual Time 6:25 AM EST 6:04 PM EST
Civil Twilight 5:57 AM EST 6:32 PM EST
Nautical Twilight 5:24 AM EST 7:05 PM EST
Astronomical Twilight 4:51 AM EST 7:39 PM EST
Moon 8:42 AM EST (3/10) No Moon Set
Length of Visible Light 12h 35m
Length of Day
11h 38m
Waxing Crescent, 28% of the Moon is Illuminated
Mar 10
Waxing Crescent
Mar 12
First Quarter
Mar 19
Full
Mar 26
Last Quarter
Apr 3
New

Hourly Weather History & Observations

Time (EST) Temp. Windchill Dew Point Humidity Pressure Visibility Wind Dir Wind Speed Gust Speed Precip Events Conditions
12:54 AM 37.9 °F 29.6 °F 30.0 °F 73% 30.17 in 10.0 mi SE 13.8 mph - 0.02 in Rain Light Rain
1:54 AM 37.0 °F 29.8 °F 30.0 °F 76% 30.15 in 10.0 mi SE 10.4 mph - 0.00 in Rain Light Rain
2:54 AM 37.9 °F 30.5 °F 30.9 °F 76% 30.14 in 10.0 mi SSE 11.5 mph - 0.00 in Rain Light Rain
3:54 AM 35.1 °F 27.4 °F 30.9 °F 85% 30.13 in 10.0 mi ESE 10.4 mph - 0.01 in Rain Light Rain
4:54 AM 34.0 °F 25.5 °F 30.9 °F 89% 30.12 in 10.0 mi East 11.5 mph - 0.01 in Rain Light Rain
5:54 AM 34.0 °F 24.6 °F 33.1 °F 96% 30.11 in 10.0 mi ESE 13.8 mph - 0.07 in Rain Light Rain
6:54 AM 34.0 °F 25.0 °F 34.0 °F 100% 30.10 in 10.0 mi East 12.7 mph - 0.00 in Rain Light Rain
7:54 AM 35.1 °F 26.4 °F 35.1 °F 100% 30.09 in 10.0 mi East 12.7 mph - 0.04 in Rain Light Rain
8:54 AM 35.1 °F 26.4 °F 35.1 °F 100% 30.08 in 9.0 mi East 12.7 mph - 0.05 in Rain Light Rain
9:54 AM 35.1 °F 25.5 °F 35.1 °F 100% 30.07 in 10.0 mi East 15.0 mph - 0.03 in Rain Light Rain
10:27 AM 35.6 °F 25.5 °F 35.6 °F 100% 30.05 in 10.0 mi East 17.3 mph - 0.00 in Rain Light Rain
10:40 AM 35.6 °F 28.0 °F 35.6 °F 100% 30.04 in 10.0 mi East 10.4 mph 20.7 mph 0.00 in Rain Light Rain
10:53 AM 35.6 °F 27.5 °F 35.6 °F 100% 30.04 in 10.0 mi East 11.5 mph - 0.00 in Rain Light Rain
11:54 AM 36.0 °F 27.5 °F 36.0 °F 100% 30.02 in 10.0 mi East 12.7 mph - 0.00 in   Overcast
12:29 PM 37.4 °F 29.8 °F - N/A% 29.99 in 10.0 mi East 11.5 mph 23.0 mph N/A   Overcast
12:46 PM 37.4 °F 29.8 °F 37.4 °F 100% 29.98 in 10.0 mi East 11.5 mph 21.9 mph 0.00 in Rain Light Rain
12:54 PM 37.0 °F 28.5 °F 37.0 °F 100% 29.98 in 10.0 mi East 13.8 mph - 0.00 in Rain Light Rain
1:54 PM 37.9 °F 29.6 °F 37.0 °F 97% 29.93 in 10.0 mi ESE 13.8 mph - 0.00 in   Overcast
2:54 PM 41.0 °F 34.7 °F 37.9 °F 89% 29.90 in 10.0 mi ESE 10.4 mph - N/A   Overcast
3:54 PM 42.1 °F 34.9 °F 39.9 °F 92% 29.89 in 10.0 mi ESE 13.8 mph - 0.00 in Rain Light Rain
4:54 PM 39.0 °F 29.3 °F 39.0 °F 100% 29.87 in 10.0 mi ESE 19.6 mph 28.8 mph 0.02 in Rain Light Rain
5:42 PM 37.4 °F 27.5 °F - N/A% 29.85 in 8.0 mi East 18.4 mph 24.2 mph 0.00 in Rain Light Rain
5:50 PM 37.4 °F 27.2 °F 37.4 °F 100% 29.85 in 10.0 mi East 19.6 mph - 0.00 in Rain Light Rain
5:54 PM 37.9 °F 27.9 °F 37.0 °F 97% 29.85 in 10.0 mi East 19.6 mph - 0.00 in Rain Light Rain
6:54 PM 37.9 °F 27.9 °F 37.0 °F 97% 29.82 in 10.0 mi East 19.6 mph 29.9 mph 0.01 in Rain Light Rain
7:54 PM 39.0 °F 29.0 °F 37.0 °F 93% 29.80 in 9.0 mi ESE 20.7 mph 27.6 mph 0.01 in Rain Light Rain
8:54 PM 39.0 °F 29.9 °F 37.9 °F 96% 29.77 in 10.0 mi East 17.3 mph - 0.05 in Rain Light Rain
9:54 PM 39.0 °F 28.3 °F 37.9 °F 96% 29.73 in 10.0 mi ESE 24.2 mph 31.1 mph 0.02 in Rain Light Rain
10:54 PM 39.0 °F 28.8 °F 37.9 °F 96% 29.70 in 7.0 mi ESE 21.9 mph 28.8 mph 0.05 in Rain Light Rain
11:54 PM 39.0 °F 29.3 °F 37.9 °F 96% 29.64 in 10.0 mi ESE 19.6 mph 31.1 mph 0.02 in   Overcast